Weather History for Moline, IL

Change the Weather History Date:

Wednesday, May 15, 2013

  Actual Average Record
Temperature  
Mean Temperature 70 °F 62 °F  
Max Temperature 82 °F 73 °F 91 °F (1941)
Min Temperature 57 °F 50 °F 35 °F (1973)
Degree Days  
Heating Degree Days 0 5  
Month to date heating degree days 107 104  
Since 1 July heating degree days 6265 6127  
Cooling Degree Days 5 2  
Month to date cooling degree days 20 19  
Year to date cooling degree days 29 33  
Growing Degree Days 22 (Base 50)    
Moisture  
Dew Point 50 °F    
Average Humidity 54    
Maximum Humidity 78    
Minimum Humidity 30    
Precipitation  
Precipitation 0.00 in 0.14 in 1.98 in (1943)
Month to date precipitation 3.27 2.00  
Year to date precipitation 18.45 11.54  
Snow  
Snow 0.00 in 0.00 in - ()
Month to date snowfall 0.0 0.0  
Since 1 July snowfall 34.5 31.6  
Snow Depth 0.00 in    
Sea Level Pressure  
Sea Level Pressure 29.80 in    
Wind  
Wind Speed 6 mph (West)    
Max Wind Speed 23 mph    
Max Gust Speed 35 mph    
Visibility 10 miles    
Events      
T = Trace of Precipitation, MM = Missing Value Source: NWS Daily Summary

Daily Weather History Graph

Daily Weather History Graph

Search for Another Location

Airport:

Trip Planner

Search our weather history database for the weather conditions in past years. The results will help you decide how hot, cold, wet, or windy it might be!

Date:

Astronomy

May. 15, 2013 Rise Set
Actual Time 5:42 AM CDT 8:14 PM CDT
Civil Twilight 5:11 AM CDT 8:46 PM CDT
Nautical Twilight 4:31 AM CDT 9:25 PM CDT
Astronomical Twilight 3:47 AM CDT 10:10 PM CDT
Moon 10:19 AM CDT (5/15) 12:00 AM CDT (5/15)
Length of Visible Light 15h 35m
Length of Day
14h 31m
Waxing Crescent, 27% of the Moon is Illuminated
May 15
Waxing Crescent
May 17
First Quarter
May 24
Full
May 31
Last Quarter
Jun 8
New

Hourly Weather History & Observations

Time (CDT) Temp. Dew Point Humidity Pressure Visibility Wind Dir Wind Speed Gust Speed Precip Events Conditions
12:52 AM 79.0 °F 48.9 °F 35% 29.67 in 10.0 mi WSW 19.6 mph 32.2 mph N/A   Clear
1:52 AM 78.1 °F 48.0 °F 35% 29.68 in 10.0 mi WSW 18.4 mph 33.4 mph N/A   Clear
2:52 AM 77.0 °F 48.9 °F 37% 29.70 in 10.0 mi WSW 17.3 mph 28.8 mph N/A   Clear
3:52 AM 73.0 °F 51.1 °F 46% 29.74 in 10.0 mi West 9.2 mph - N/A   Clear
4:52 AM 70.0 °F 51.1 °F 51% 29.76 in 10.0 mi SW 9.2 mph - N/A   Partly Cloudy
5:52 AM 66.0 °F 51.1 °F 59% 29.78 in 10.0 mi WSW 5.8 mph - N/A   Clear
6:52 AM 66.9 °F 53.1 °F 61% 29.79 in 10.0 mi WSW 5.8 mph - N/A   Clear
7:52 AM 69.1 °F 51.1 °F 53% 29.81 in 10.0 mi West 8.1 mph - N/A   Clear
8:52 AM 72.0 °F 52.0 °F 49% 29.84 in 10.0 mi WNW 8.1 mph - N/A   Clear
9:52 AM 75.0 °F 48.9 °F 40% 29.83 in 10.0 mi NNW 6.9 mph - N/A   Clear
10:52 AM 75.9 °F 51.1 °F 42% 29.84 in 10.0 mi NNW 5.8 mph - N/A   Clear
11:52 AM - - N/A% 29.85 in 10.0 mi North 8.1 mph - N/A   Clear
12:52 PM 78.1 °F 52.0 °F 40% 29.84 in 10.0 mi NNW 10.4 mph - N/A   Clear
1:52 PM 80.1 °F 48.0 °F 32% 29.84 in - Calm Calm - N/A   Clear
2:52 PM 82.0 °F 52.0 °F 35% 29.82 in 10.0 mi NNW 8.1 mph - N/A   Clear
3:52 PM 78.1 °F 46.0 °F 32% 29.83 in 10.0 mi NW 5.8 mph - N/A   Partly Cloudy
4:52 PM 81.0 °F 46.0 °F 29% 29.80 in 10.0 mi Calm Calm - N/A   Clear
5:52 PM 81.0 °F 46.0 °F 29% 29.81 in 10.0 mi Calm Calm - N/A   Clear
6:52 PM 77.0 °F 48.9 °F 37% 29.81 in 10.0 mi SW 3.5 mph - N/A   Clear
7:52 PM 73.9 °F 48.9 °F 41% 29.81 in 7.0 mi SSW 3.5 mph - N/A   Clear
8:52 PM 64.9 °F 53.1 °F 65% 29.83 in 10.0 mi Calm Calm - N/A   Clear
9:52 PM 63.0 °F 52.0 °F 67% 29.85 in 10.0 mi Calm Calm - N/A   Clear
10:52 PM 61.0 °F 53.1 °F 75% 29.85 in 10.0 mi Calm Calm - N/A   Clear
11:52 PM 59.0 °F 52.0 °F 78% 29.85 in 10.0 mi Calm Calm - N/A   Clear